Weather History for KY51 - December, 2013

Change the Weather History Date:

Tuesday, December 31, 2013

  Actual Average (KLSE) Record (KLSE)
Temperature  
Mean Temperature -1 °F 18 °F  
Max Temperature 3 °F 26 °F 59 °F (1965)
Min Temperature -5 °F 10 °F -20 °F (1976)
Degree Days  
Heating Degree Days 66 47  
Month to date heating degree days 1344  
Since 1 July heating degree days 2844  
Cooling Degree Days 0 0  
Month to date cooling degree days 0  
Year to date cooling degree days 782  
Moisture  
Dew Point -5 °F    
Average Humidity 81    
Maximum Humidity 87    
Minimum Humidity 69    
Precipitation  
Precipitation 0.00 in 0.03 in 0.59 in (2006)
Month to date precipitation 1.36  
Year to date precipitation 33.06  
Snow  
Snow 0.00 in 0.30 in 6.20 in (1911)
Month to date snowfall 11.3  
Since 1 July snowfall 15.6  
Snow Depth -    
Sea Level Pressure  
Sea Level Pressure 30.21 in    
Wind  
Wind Speed 5 mph (NW)    
Max Wind Speed 10 mph    
Max Gust Speed -    
Visibility 8 miles    
Events      
T = Trace of Precipitation, MM = Missing Value Source: NWS Daily Summary

Daily Weather History Graph

Daily Weather History Graph

Search for Another Location

Airport or City:

Trip Planner

Search our weather history database for the weather conditions in past years. The results will help you decide how hot, cold, wet, or windy it might be!

Date:

Astronomy

Dec. 31, 2013 Rise Set
Actual Time 7:36 AM CST 4:36 PM CST
Civil Twilight 7:04 AM CST 5:09 PM CST
Nautical Twilight 6:28 AM CST 5:45 PM CST
Astronomical Twilight 5:53 AM CST 6:20 PM CST
Moon 6:28 AM CST (12/31) 4:14 PM CST (12/31)
Length of Visible Light 10h 05m
Length of Day
9h 00m
Waning Crescent, 1% of the Moon is Illuminated
Dec 31
Waning Crescent
Jan 1
New
Jan 7
First Quarter
Jan 15
Full
Jan 23
Last Quarter

Hourly Weather History & Observations

Time (CST) Temp. Windchill Dew Point Humidity Pressure Visibility Wind Dir Wind Speed Gust Speed Precip Events Conditions
12:15 AM -3.1 °F -13.5 °F -6.2 °F 87% 30.12 in 10.0 mi WSW 4.6 mph - N/A   Overcast
12:35 AM -2.2 °F -12.5 °F -5.6 °F 85% 30.12 in 10.0 mi West 4.6 mph - N/A   Overcast
12:55 AM -2.4 °F -14.4 °F -5.8 °F 85% 30.12 in 10.0 mi WSW 5.8 mph - N/A   Overcast
1:15 AM -2.2 °F -12.5 °F -5.8 °F 85% 30.11 in 10.0 mi WSW 4.6 mph - N/A   Overcast
1:35 AM -2.7 °F -14.8 °F -6.2 °F 85% 30.11 in 10.0 mi WSW 5.8 mph - N/A   Overcast
1:55 AM -2.9 °F -13.3 °F -6.2 °F 86% 30.11 in 10.0 mi WSW 4.6 mph - N/A   Overcast
2:15 AM -2.6 °F -12.9 °F -6.0 °F 85% 30.12 in 10.0 mi WSW 4.6 mph - N/A   Overcast
2:35 AM -2.2 °F -10.4 °F -5.8 °F 85% 30.13 in 10.0 mi West 3.5 mph - N/A   Overcast
2:55 AM -1.7 °F -11.8 °F -5.1 °F 85% 30.13 in 10.0 mi West 4.6 mph - N/A   Overcast
3:15 AM -1.1 °F -14.3 °F -4.5 °F 85% 30.12 in 10.0 mi West 6.9 mph - N/A   Overcast
3:35 AM -1.3 °F -13.1 °F -4.9 °F 85% 30.12 in 10.0 mi West 5.8 mph - N/A   Overcast
3:55 AM -2.2 °F -14.2 °F -5.6 °F 85% 30.13 in 10.0 mi West 5.8 mph - N/A   Overcast
4:15 AM -2.2 °F -15.6 °F -5.4 °F 86% 30.14 in 10.0 mi West 6.9 mph - N/A   Overcast
4:35 AM -2.2 °F -15.6 °F -5.4 °F 86% 30.14 in 10.0 mi West 6.9 mph - N/A   Overcast
4:55 AM -3.1 °F -15.2 °F -6.5 °F 85% 30.14 in 10.0 mi West 5.8 mph - N/A   Overcast
5:15 AM -3.6 °F -15.9 °F -7.2 °F 85% 30.14 in 10.0 mi West 5.8 mph - N/A   Scattered Clouds
5:35 AM -4.4 °F -15.0 °F -8.0 °F 84% 30.15 in 10.0 mi West 4.6 mph - N/A   Clear
5:55 AM -4.4 °F -12.8 °F -8.0 °F 84% 30.14 in 10.0 mi NNW 3.5 mph - N/A   Clear
6:15 AM -4.7 °F -13.2 °F -8.1 °F 85% 30.14 in 10.0 mi NNW 3.5 mph - N/A   Mostly Cloudy
6:35 AM -3.3 °F -11.6 °F -6.3 °F 87% 30.13 in 10.0 mi NW 3.5 mph - N/A   Overcast
6:55 AM -4.0 °F -14.6 °F -7.8 °F 84% 30.13 in 10.0 mi NW 4.6 mph - N/A   Mostly Cloudy
7:15 AM -4.2 °F -14.8 °F -7.8 °F 84% 30.15 in 10.0 mi West 4.6 mph - N/A   Mostly Cloudy
7:35 AM -5.6 °F -18.2 °F -9.6 °F 83% 30.17 in 10.0 mi SW 5.8 mph - N/A   Scattered Clouds
7:55 AM -4.5 °F -18.4 °F -8.3 °F 84% 30.19 in 10.0 mi WSW 6.9 mph - N/A   Clear
8:15 AM -4.4 °F -18.2 °F -8.1 °F 84% 30.20 in 10.0 mi WSW 6.9 mph - N/A   Scattered Clouds
8:35 AM -3.6 °F -17.3 °F -7.2 °F 85% 30.21 in 10.0 mi WSW 6.9 mph - N/A   Clear
8:55 AM -3.1 °F -16.7 °F -6.3 °F 86% 30.22 in 10.0 mi WSW 6.9 mph - N/A   Clear
9:15 AM -1.8 °F -16.4 °F -5.3 °F 85% 30.24 in 10.0 mi WSW 8.1 mph - N/A   Scattered Clouds
9:35 AM -1.3 °F -14.5 °F -4.5 °F 86% 30.24 in 10.0 mi West 6.9 mph - N/A   Overcast
9:55 AM -0.8 °F -12.5 °F -4.0 °F 86% 30.24 in 10.0 mi West 5.8 mph - N/A   Overcast
10:15 AM -0.0 °F -7.9 °F -3.6 °F 85% 30.25 in 10.0 mi West 3.5 mph - N/A   Overcast
10:35 AM 0.3 °F -11.2 °F -3.1 °F 85% 30.25 in 10.0 mi West 5.8 mph - N/A   Overcast
10:55 AM 0.5 °F -7.3 °F -2.7 °F 86% 30.24 in 10.0 mi WNW 3.5 mph - N/A   Overcast
11:15 AM 1.2 °F -8.5 °F -2.2 °F 86% 30.24 in 10.0 mi WNW 4.6 mph - N/A   Overcast
11:35 AM 1.4 °F -9.9 °F -2.0 °F 86% 30.24 in 10.0 mi NW 5.8 mph - N/A   Overcast
11:55 AM 1.4 °F -8.3 °F -2.2 °F 85% 30.23 in 10.0 mi WNW 4.6 mph - N/A   Overcast
12:15 PM 1.9 °F -7.6 °F -1.7 °F 85% 30.22 in 10.0 mi NW 4.6 mph - N/A   Overcast
12:35 PM 2.3 °F -8.8 °F -1.3 °F 85% 30.22 in 10.0 mi NW 5.8 mph - N/A   Overcast
12:55 PM 2.7 °F -6.8 °F -1.5 °F 83% 30.21 in 10.0 mi NW 4.6 mph - N/A   Overcast
1:15 PM 2.7 °F -6.8 °F -2.2 °F 80% 30.21 in 10.0 mi WNW 4.6 mph - N/A   Overcast
1:35 PM 2.8 °F -4.6 °F -2.2 °F 79% 30.22 in 2.0 mi WNW 3.5 mph - N/A   Overcast
1:55 PM 3.0 °F -6.4 °F -2.2 °F 79% 30.22 in 1.0 mi WNW 4.6 mph - N/A   Overcast
2:15 PM 3.2 °F -4.2 °F -1.8 °F 80% 30.21 in 1.2 mi WNW 3.5 mph - N/A   Overcast
2:35 PM 3.2 °F -4.2 °F -1.7 °F 80% 30.21 in 1.2 mi NW 3.5 mph - N/A   Overcast
2:55 PM 3.2 °F -6.2 °F -1.5 °F 81% 30.21 in 1.2 mi NNW 4.6 mph - N/A   Overcast
3:15 PM 3.2 °F -6.2 °F -1.7 °F 80% 30.21 in 3.0 mi North 4.6 mph - N/A   Overcast
3:35 PM 3.2 °F -7.8 °F -2.6 °F 77% 30.22 in 3.0 mi North 5.8 mph - N/A   Overcast
3:55 PM 2.8 °F -8.2 °F -2.2 °F 79% 30.22 in 3.0 mi NNW 5.8 mph - N/A   Overcast
4:15 PM 2.8 °F -6.6 °F -2.2 °F 79% 30.22 in 1.5 mi NNW 4.6 mph - N/A   Overcast
4:35 PM 2.5 °F -8.6 °F -2.2 °F 81% 30.23 in 1.5 mi NNW 5.8 mph - N/A   Overcast
4:55 PM 2.3 °F -8.8 °F -2.2 °F 81% 30.23 in 2.0 mi NNW 5.8 mph - N/A   Overcast
5:15 PM 2.3 °F -8.8 °F -2.0 °F 82% 30.24 in 2.0 mi NNW 5.8 mph - N/A   Overcast
5:35 PM 2.3 °F -7.2 °F -1.8 °F 83% 30.24 in 2.5 mi NNW 4.6 mph - N/A   Overcast
5:55 PM 2.3 °F -7.2 °F -1.7 °F 84% 30.25 in 3.0 mi NW 4.6 mph - N/A   Overcast
6:15 PM 2.7 °F -6.8 °F -1.3 °F 84% 30.25 in 7.0 mi NNW 4.6 mph - N/A   Overcast
6:35 PM 2.7 °F -4.8 °F -1.7 °F 82% 30.25 in 10.0 mi North 3.5 mph - N/A   Overcast
6:55 PM 2.8 °F -4.6 °F -2.7 °F 78% 30.26 in 10.0 mi NNW 3.5 mph - N/A   Overcast
7:15 PM 2.8 °F -4.6 °F -2.9 °F 77% 30.27 in 10.0 mi NNW 3.5 mph - N/A   Overcast
7:35 PM 2.8 °F - -3.3 °F 76% 30.27 in 10.0 mi Calm Calm - N/A   Overcast
7:55 PM 2.3 °F -8.8 °F -4.9 °F 72% 30.27 in 10.0 mi North 5.8 mph - N/A   Overcast
8:15 PM 2.1 °F -9.0 °F -5.3 °F 71% 30.27 in 10.0 mi North 5.8 mph - N/A   Overcast
8:35 PM 1.8 °F -9.5 °F -5.8 °F 71% 30.28 in 10.0 mi North 5.8 mph - N/A   Overcast
8:55 PM 1.2 °F -10.1 °F -6.9 °F 69% 30.28 in 10.0 mi NNE 5.8 mph - N/A   Overcast
9:15 PM -0.4 °F -12.0 °F -8.3 °F 69% 30.28 in 10.0 mi NNE 5.8 mph - N/A   Scattered Clouds
9:35 PM -1.1 °F -14.3 °F -8.5 °F 71% 30.27 in 10.0 mi NNE 6.9 mph - N/A   Clear
9:55 PM -0.8 °F -15.1 °F -8.0 °F 72% 30.28 in 10.0 mi NNE 8.1 mph - N/A   Mostly Cloudy
10:15 PM -1.1 °F -15.5 °F -8.5 °F 71% 30.28 in 10.0 mi NNE 8.1 mph - N/A   Overcast
10:35 PM -1.3 °F -16.8 °F -8.5 °F 72% 30.28 in 10.0 mi NNE 9.2 mph - N/A   Overcast
10:55 PM -2.2 °F -18.0 °F -8.9 °F 73% 30.28 in 10.0 mi NNE 9.2 mph - N/A   Mostly Cloudy
11:15 PM -2.9 °F -19.8 °F -9.8 °F 73% 30.27 in 10.0 mi NNE 10.4 mph - N/A   Clear
11:35 PM -3.6 °F -20.7 °F -10.3 °F 73% 30.28 in 10.0 mi NNE 10.4 mph - N/A   Clear
11:55 PM -4.2 °F -20.4 °F -11.2 °F 72% 30.27 in 10.0 mi NE 9.2 mph - N/A   Scattered Clouds